Regional Weather Roundup
Issued by NWS

Home | Current Version | Previous Version | Text Only | Print | Product List | Glossary On
Versions: 1 2 3 4 5 6 7 8 9 10 11 12 13 14 15 16 17 18 19 20 21 22 23 24 25 26 27 28 29 30 31 32 33 34 35 36 37 38 39 40 41 42 43 44 45 46 47 48 49 50
571
ASUS44 KLIX 171705
RWRLA
LOUISIANA WEATHER ROUNDUP
NATIONAL WEATHER SERVICE NEW ORLEANS LA
1200 PM CDT WED SEP 17 2014

NOTE: "FAIR" INDICATES FEW OR NO CLOUDS BELOW 12,000 FEET WITH NO
      SIGNIFICANT WEATHER AND/OR OBSTRUCTIONS TO VISIBILITY.
      SKY/WX - SKY CONDITION AND SIGNIFICANT WEATHER.
      TMP - AIR TEMPERATURE.    DP   - DEWPOINT TEMPERATURE.
      RH  - RELATIVE HUMIDITY.  PRES - PRESSURE.
      HX  - HEAT INDEX.         WCI  - WIND CHILL INDEX.

*  THESE STATIONS ARE NOT NWS OR FAA STATIONS AND ARE NOT UNDER
   NWS QUALITY CONTROL.

LAZ040-048-061>063-065-066-069-171800-
SOUTHEAST LOUISIANA

CITY           SKY/WX    TMP DP  RH WIND       PRES   REMARKS
N.O. AUDUBON     N/A     87  76  69 MISG        N/A  HX  96
N.O. INTL ARPT NOT AVBL
N.O. LAKEFRONT NOT AVBL
N.O. DOWNTOWN* NOT AVBL
SLIDELL        MOSUNNY   83  71  67 CALM      29.97F
BATON ROUGE    PTSUNNY   83  73  72 SE5       29.98F
BOOTHVILLE     MOSUNNY   86  75  69 CALM      29.97F HX  95
BELLE CHASSE   PTSUNNY   87  73  62 VRB5      29.96F
BOGALUSA*      NOT AVBL
GALLIANO*      NOT AVBL
NEW ROADS*     NOT AVBL
GONZALES*      NOT AVBL
HAMMOND*       NOT AVBL
HOUMA*         MOSUNNY   86  68  54 NW3       29.97F
PORT FOURCHON* NOT AVBL

$$

LAZ041-044-053-054-171800-
SOUTHWEST LOUISIANA

CITY           SKY/WX    TMP DP  RH WIND       PRES   REMARKS
LAKE CHARLES   MOSUNNY   85  74  69 VRB3      29.97F
LAFAYETTE      NOT AVBL
PATTERSON      NOT AVBL
SALT POINT       N/A     85  73  67 VRB3      29.97F
NEW IBERIA     PTSUNNY   85  73  67 NE6       29.98F
CHENAULT AIRPK NOT AVBL

$$

LAZ027-028-171800-
CENTRAL LOUISIANA

CITY           SKY/WX    TMP DP  RH WIND       PRES   REMARKS
FORT POLK      MOSUNNY   80  71  74 CALM      29.99F
ALEXANDRIA INT PTSUNNY   82  72  71 CALM      29.97F
ALEXANDRIA     NOT AVBL

$$

LAZ001-002-171800-
NORTHWEST LOUISIANA

CITY           SKY/WX    TMP DP  RH WIND       PRES   REMARKS
SHREVEPORT     NOT AVBL
BARKSDALE AFB  PTSUNNY   86  71  60 S5        29.98F
DTN SHREVEPORT NOT AVBL

$$

LAZ014-016-171800-
NORTHEAST LOUISIANA

CITY           SKY/WX    TMP DP  RH WIND       PRES   REMARKS
MONROE         NOT AVBL
TALLULAH       SUNNY     89  69  51 NE6       29.98F

$$




USA.gov is the U.S. government's official web portal to all federal, state and local government web resources and services.